Regional Weather Roundup
Issued by NWS

Home | Current Version | Previous Version | Graphics & Text | Print | Product List | Glossary On
Versions: 1 2 3 4 5 6 7 8 9 10 11 12 13 14 15 16 17 18 19 20 21 22 23 24 25 26 27 28 29 30 31 32 33 34 35 36 37 38 39 40 41 42 43 44 45 46 47 48 49 50
000
ASUS45 KTFX 182004
RWRMT
MONTANA HOURLY WEATHER ROUNDUP
NATIONAL WEATHER SERVICE GREAT FALLS MT
104 PM MST THU DEC 18 2014

NOTE: "FAIR" INDICATES FEW OR NO CLOUDS BELOW 12000 FEET WITH NO
SIGNIFICANT WEATHER AND/OR OBSTRUCTIONS TO VISIBILITY.

* THESE STATIONS ARE NOT UNDER NWS QUALITY CONTROL. THEY DO NOT
   REPORT WEATHER SUCH AS PRECIPITATION OR FOG.

MTZ001>007-043-182100-
WEST OF THE DIVIDE
CITY           SKY/WX    TMP DP  RH WIND       PRES   REMARKS
KALISPELL      LGT SNOW  32  30  92 CALM      29.98F
MISSOULA       CLOUDY    34  27  76 NW3       30.03F
BUTTE          CLOUDY    21  18  88 CALM      30.00F
MULLAN PASS    LGT SNOW  30  28  92 VRB7      29.93S VSB M1/4 WCI  23
* ANACONDA     PTSUNNY   34  21  59 SE15G22    N/A   WCI  24
* ESSEX        N/A       32  30  92 NW2        N/A
* LINCOLN      N/A       29  26  89 NE1        N/A
* LOOKOUT PASS N/A       34  32  92 SE1        N/A
* POLSON       N/A       34  33  96 S1         N/A
* RONAN APT    CLOUDY    34  32  92 N/A        N/A
* SEELEY LAKE  N/A       30  28  92 N/A        N/A
* THOMP F APT  CLOUDY    26  22  85 SE3        N/A
* YAAK HILL    N/A       34  31  89 N/A        N/A
$$

MTZ008-052>055-182100-
SOUTHWEST MONTANA
CITY           SKY/WX    TMP DP  RH WIND       PRES   REMARKS
BOZEMAN        PTCLDY    30  21  69 N3        30.01F
DILLON         PTSUNNY   30  19  64 SE6       30.01F WCI  24
* W YELLOWSTON PTCLDY    26  20  78 S1         N/A
* THREE FORKS  PTSUNNY   28   3  34 N/A        N/A
* BOULDER HILL N/A       29  13  51 SW9        N/A   WCI  21
* MONIDA PASS  N/A       22  22 100 SE16G22    N/A   WCI   8
* RAYNOLDS PAS N/A       25   8  48 S12        N/A   WCI  14
* WHITEHALL    N/A       31  20  64 SW5        N/A   WCI  26
* WISE RIVER   N/A       19  14  81 NW2        N/A
$$

MTZ009>010-012-014-046-048-049-054-182100-
EAST SLOPES AND CENTRAL MONTANA
CITY           SKY/WX    TMP DP  RH WIND       PRES   REMARKS
CUT BANK       PTSUNNY   36  28  73 W18       29.84F WCI  26
GREAT FALLS    CLOUDY    41  25  53 SW18G26   29.89F
HELENA         PTSUNNY   28  25  89 CALM      29.99F
* DEARBORN     N/A       39  23  53 S6G14      N/A   WCI  35
* EAST GLACIER N/A       35  26  70 W17G23     N/A   WCI  25
* MONARCH      N/A       35  16  46 SW19G26    N/A   WCI  24
* PENDROY      N/A       39  27  62 SW1        N/A
* ROGERS PASS  N/A       29  24  82 SE11G23    N/A   WCI  19
* SWEET GRASS  N/A       36  31  82 SW12       N/A   WCI  28
$$

MTZ011-013-016-021-035-040-045-047-050-051-182100-
NORTH CENTRAL MONTANA
CITY           SKY/WX    TMP DP  RH WIND       PRES   REMARKS
HAVRE          PTCLDY    30  28  92 W7        29.88F WCI  23
LEWISTOWN      PTCLDY    43  25  49 SW13      29.89F
* N BAR RANCH  SUNNY     45  21  38 NW10G18   29.89F
* CHESTER      N/A       28  27  96 N/A        N/A
* DENTON       N/A       43  21  42 W16G24     N/A
* JUDITH GAP   N/A       38  19  46 SW17G23    N/A   WCI  29
* LOMA         N/A       30  29  96 E1         N/A
$$

MTZ017>020-022>027-061-062-182100-
NORTHEAST MONTANA
CITY           SKY/WX    TMP DP  RH WIND       PRES   REMARKS
GLASGOW        HAZE      30  25  82 N3        29.91F
GLENDIVE       SUNNY     36  27  70 S7        29.94F WCI  30
JORDAN         SUNNY     45  27  49 W7        29.89F
SIDNEY         CLOUDY    28  25  89 CALM      29.97F
WOLF POINT     CLOUDY    30  25  82 CALM      29.93F
* BEAVER HILL  N/A       33  28  82 SW11       N/A   WCI  24
* CIRCLE       N/A       37  31  79 S5         N/A   WCI  33
* LINDSAY DVD  N/A       32  32 100 SW4        N/A
* NAVAJO       N/A       26  25  96 SW4        N/A
* SACO         N/A       29  24  82 W6         N/A   WCI  23
$$

MTZ028>042-056>058-182100-
SOUTHCENTRAL AND SOUTHEAST MONTANA
CITY           SKY/WX    TMP DP  RH WIND       PRES   REMARKS
BAKER          SUNNY     36  30  79 W9        29.93F WCI  29
BILLINGS       PTCLDY    36  21  54 SW17G26   29.95F WCI  26
LIVINGSTON     PTCLDY    39  19  45 SW28G37   29.94F WCI  27
MILES CITY     PTCLDY    36  27  70 SW7       29.94F WCI  30
* LAUREL APT   SUNNY     37  18  46 S9         N/A   WCI  30
* ROUNDUP APT  PTCLDY    43  21  42 S15G23     N/A
* ALZADA       N/A       34  30  85 SW9        N/A   WCI  27
* HYSHAM       N/A       35  17  48 W8         N/A   WCI  28
* LAME DEER    N/A       38  20  48 W9G16      N/A   WCI  32
* REED POINT   N/A       32  24  72 E4         N/A
* ROSCOE HILL  N/A       39   4  23 S16G24     N/A   WCI  30
$$

REGIONAL REPORTS...DAKOTAS
CITY           SKY/WX    TMP DP  RH WIND       PRES   REMARKS
WILLISTON      CLOUDY    27  21  78 S3        29.96F
DICKINSON      CLOUDY    30  27  89 W8        29.92F WCI  22
BEACH          SUNNY     32  32 100 W9        29.93F WCI  24
CROSBY         CLOUDY    23  23 100 S9        29.96F WCI  13
WATFORD CITY   CLOUDY    27  23  85 SW6       29.94F WCI  20
BISMARCK       CLOUDY    25  19  78 S6        30.04F WCI  18
GRAND FORKS    CLOUDY    18  12  77 S12       30.19F WCI   5
FARGO          CLOUDY    19  12  74 SE12      30.20F WCI   6
BUFFALO SD     PTCLDY    36  28  73 W12       29.87F WCI  28
RAPID CITY     SUNNY     39  28  65 E6        29.96F WCI  35
$$

REGIONAL REPORTS...WYOMING/IDAHO/WASHINGTON
CITY           SKY/WX    TMP DP  RH WIND       PRES   REMARKS
GILLETTE       SUNNY     37  21  52 SW14      29.97F WCI  28
SHERIDAN       SUNNY     36  21  54 CALM      29.95F
CODY           SUNNY     25  16  69 NE5       29.98F WCI  19
YELLOWSTONE LA PTCLDY    25  18  75 VRB6      30.05F WCI  18
SALMON         CLOUDY    27  18  69 NW3       30.09F
MULLAN PASS    LGT SNOW  30  28  92 VRB7      29.93S VSB M1/4 WCI  23
SAND POINT     FOG       32  32 100 CALM      30.00F VSB 1 1/2
SPOKANE        FOG       39  37  93 S5        29.97F VSB 3    WCI  35

$$




USA.gov is the U.S. government's official web portal to all federal, state and local government web resources and services.